Time,TemperatureF,DewpointF,PressureIn,WindDirection,WindDirectionDegrees,WindSpeedMPH,WindSpeedGustMPH,Humidity,HourlyPrecipIn,Conditions,Clouds,dailyrainin,SoftwareType,DateUTC
2013-06-14 00:00:00,77.4,73.5,29.63,NE,45,0.0,0.0,85,0.00,,,0.00,fowsr,2013-06-14 04:00:00,
2013-06-14 00:05:00,77.2,73.6,29.63,North,0,0.0,0.0,86,0.00,,,0.00,fowsr,2013-06-14 04:05:00,
2013-06-14 00:10:00,77.2,73.6,29.62,NE,45,0.0,0.0,86,0.00,,,0.00,fowsr,2013-06-14 04:10:00,
2013-06-14 00:15:00,77.0,73.4,29.62,NE,45,0.0,0.0,86,0.00,,,0.00,fowsr,2013-06-14 04:15:00,
2013-06-14 00:20:00,77.0,73.4,29.63,NE,45,0.0,0.0,86,0.00,,,0.00,fowsr,2013-06-14 04:20:00,
2013-06-14 00:25:00,76.8,73.5,29.63,East,90,0.0,0.0,87,0.00,,,0.00,fowsr,2013-06-14 04:25:00,
2013-06-14 00:30:00,76.6,73.6,29.63,SE,135,0.7,1.6,88,0.00,,,0.00,fowsr,2013-06-14 04:30:00,
2013-06-14 00:35:00,76.6,73.6,29.64,NW,315,0.0,0.0,88,0.00,,,0.00,fowsr,2013-06-14 04:35:00,
2013-06-14 00:40:00,76.6,73.6,29.64,SE,135,0.0,0.7,88,0.00,,,0.00,fowsr,2013-06-14 04:40:00,
2013-06-14 00:45:00,76.8,74.0,29.63,NE,45,0.0,0.0,89,0.00,,,0.00,fowsr,2013-06-14 04:45:00,
2013-06-14 00:50:00,76.8,74.0,29.63,East,90,0.0,0.0,89,0.00,,,0.00,fowsr,2013-06-14 04:50:00,
2013-06-14 00:55:00,77.0,73.9,29.63,SW,225,0.0,0.7,88,0.00,,,0.00,fowsr,2013-06-14 04:55:00,
2013-06-14 01:00:00,77.0,73.9,29.62,SE,135,0.0,0.0,88,0.00,,,0.00,fowsr,2013-06-14 05:00:00,
2013-06-14 01:05:00,76.8,74.0,29.62,NE,45,0.0,0.0,89,0.00,,,0.00,fowsr,2013-06-14 05:05:00,
2013-06-14 01:10:00,76.5,73.7,29.62,NW,315,0.0,0.0,89,0.00,,,0.00,fowsr,2013-06-14 05:10:00,
2013-06-14 01:15:00,76.1,73.3,29.62,NW,315,0.0,0.0,89,0.00,,,0.00,fowsr,2013-06-14 05:15:00,
2013-06-14 01:20:00,75.9,73.4,29.62,East,90,0.0,0.7,90,0.00,,,0.00,fowsr,2013-06-14 05:20:00,
2013-06-14 01:25:00,75.9,73.4,29.62,NE,45,0.0,0.0,90,0.00,,,0.00,fowsr,2013-06-14 05:25:00,
2013-06-14 01:30:00,75.9,73.4,29.62,South,180,0.0,0.7,90,0.00,,,0.00,fowsr,2013-06-14 05:30:00,
2013-06-14 01:35:00,75.9,73.7,29.62,North,0,0.0,0.0,91,0.00,,,0.00,fowsr,2013-06-14 05:35:00,
2013-06-14 01:40:00,75.9,73.7,29.62,North,0,0.0,0.0,91,0.00,,,0.00,fowsr,2013-06-14 05:40:00,
2013-06-14 01:45:00,75.9,73.7,29.61,SE,135,0.0,1.6,91,0.00,,,0.00,fowsr,2013-06-14 05:45:00,
2013-06-14 01:50:00,76.1,73.9,29.61,North,0,0.0,0.7,91,0.00,,,0.00,fowsr,2013-06-14 05:50:00,
2013-06-14 01:55:00,76.3,73.8,29.61,NE,45,0.7,1.6,90,0.00,,,0.00,fowsr,2013-06-14 05:55:00,
2013-06-14 02:00:00,76.3,73.8,29.61,NE,45,0.0,0.7,90,0.00,,,0.00,fowsr,2013-06-14 06:00:00,
2013-06-14 02:05:00,76.1,73.6,29.61,East,90,0.7,1.6,90,0.00,,,0.00,fowsr,2013-06-14 06:05:00,
2013-06-14 02:10:00,75.9,73.4,29.61,East,90,0.7,1.6,90,0.00,,,0.00,fowsr,2013-06-14 06:10:00,
2013-06-14 02:15:00,75.9,73.4,29.61,NE,45,0.7,2.2,90,0.00,,,0.00,fowsr,2013-06-14 06:15:00,
2013-06-14 02:20:00,75.9,73.4,29.60,NE,45,0.0,0.7,90,0.00,,,0.00,fowsr,2013-06-14 06:20:00,
2013-06-14 02:25:00,75.9,73.2,29.60,South,180,0.0,0.0,89,0.00,,,0.00,fowsr,2013-06-14 06:25:00,
2013-06-14 02:30:00,75.6,72.8,29.60,NE,45,0.7,1.6,89,0.00,,,0.00,fowsr,2013-06-14 06:30:00,
2013-06-14 02:35:00,75.6,73.1,29.60,West,270,0.0,2.2,90,0.00,,,0.00,fowsr,2013-06-14 06:35:00,
2013-06-14 02:40:00,75.6,73.1,29.60,NE,45,0.0,0.7,90,0.00,,,0.00,fowsr,2013-06-14 06:40:00,
2013-06-14 02:45:00,75.6,73.1,29.59,NE,45,0.0,0.7,90,0.00,,,0.00,fowsr,2013-06-14 06:45:00,
2013-06-14 02:50:00,75.6,73.1,29.59,East,90,0.0,1.6,90,0.00,,,0.00,fowsr,2013-06-14 06:50:00,
2013-06-14 02:55:00,75.9,73.4,29.59,East,90,0.0,1.6,90,0.00,,,0.00,fowsr,2013-06-14 06:55:00,
2013-06-14 03:00:00,75.9,73.4,29.59,NW,315,0.7,1.6,90,0.00,,,0.00,fowsr,2013-06-14 07:00:00,
2013-06-14 03:05:00,75.9,73.4,29.59,East,90,0.0,0.7,90,0.00,,,0.00,fowsr,2013-06-14 07:05:00,
2013-06-14 03:10:00,75.9,73.4,29.59,NE,45,0.0,1.6,90,0.00,,,0.00,fowsr,2013-06-14 07:10:00,
2013-06-14 03:15:00,75.9,73.4,29.58,NE,45,0.7,1.6,90,0.00,,,0.00,fowsr,2013-06-14 07:15:00,
2013-06-14 03:20:00,75.9,73.4,29.59,SW,225,0.0,1.6,90,0.00,,,0.00,fowsr,2013-06-14 07:20:00,
2013-06-14 03:25:00,75.9,73.4,29.59,West,270,0.0,0.7,90,0.00,,,0.00,fowsr,2013-06-14 07:25:00,
2013-06-14 03:30:00,75.9,73.4,29.59,East,90,0.0,0.7,90,0.00,,,0.00,fowsr,2013-06-14 07:30:00,
2013-06-14 03:35:00,75.9,73.4,29.58,NE,45,0.0,0.0,90,0.00,,,0.00,fowsr,2013-06-14 07:35:00,
2013-06-14 03:40:00,75.9,73.4,29.58,NE,45,0.0,0.7,90,0.00,,,0.00,fowsr,2013-06-14 07:40:00,
2013-06-14 03:45:00,75.6,73.1,29.58,NE,45,0.0,0.7,90,0.00,,,0.00,fowsr,2013-06-14 07:45:00,
2013-06-14 03:50:00,75.4,73.1,29.58,NE,45,0.0,1.6,91,0.00,,,0.00,fowsr,2013-06-14 07:50:00,
2013-06-14 03:55:00,75.0,73.0,29.58,East,90,0.0,0.0,92,0.00,,,0.00,fowsr,2013-06-14 07:55:00,
2013-06-14 04:00:00,74.7,72.7,29.59,East,90,0.0,0.0,92,0.00,,,0.00,fowsr,2013-06-14 08:00:00,
2013-06-14 04:05:00,74.3,72.3,29.59,SE,135,0.0,0.0,92,0.00,,,0.00,fowsr,2013-06-14 08:05:00,
2013-06-14 04:10:00,74.3,72.6,29.60,NNE,22,0.7,1.6,93,0.00,,,0.00,fowsr,2013-06-14 08:10:00,
2013-06-14 04:15:00,74.5,73.0,29.59,East,90,0.0,0.7,94,0.00,,,0.00,fowsr,2013-06-14 08:15:00,
2013-06-14 04:20:00,74.7,73.2,29.59,East,90,0.0,1.6,94,0.00,,,0.00,fowsr,2013-06-14 08:20:00,
2013-06-14 04:25:00,74.8,73.4,29.59,SW,225,0.0,0.7,94,0.00,,,0.00,fowsr,2013-06-14 08:25:00,
2013-06-14 04:30:00,74.8,73.4,29.59,NE,45,0.0,0.7,94,0.00,,,0.00,fowsr,2013-06-14 08:30:00,
2013-06-14 04:35:00,74.8,73.4,29.59,NW,315,0.0,0.7,94,0.00,,,0.00,fowsr,2013-06-14 08:35:00,
2013-06-14 04:40:00,74.8,73.4,29.58,SE,135,0.0,0.7,94,0.00,,,0.00,fowsr,2013-06-14 08:40:00,
2013-06-14 04:45:00,74.7,73.2,29.59,NW,315,0.7,1.6,94,0.00,,,0.00,fowsr,2013-06-14 08:45:00,
2013-06-14 04:50:00,74.8,73.4,29.58,SE,135,0.7,2.2,94,0.00,,,0.00,fowsr,2013-06-14 08:50:00,
2013-06-14 04:55:00,74.8,73.4,29.57,North,0,0.7,1.6,94,0.00,,,0.00,fowsr,2013-06-14 08:55:00,
2013-06-14 05:00:00,74.8,73.4,29.58,NE,45,0.0,1.6,94,0.00,,,0.00,fowsr,2013-06-14 09:00:00,
2013-06-14 05:05:00,74.8,73.4,29.58,South,180,0.0,1.6,94,0.00,,,0.00,fowsr,2013-06-14 09:05:00,
2013-06-14 05:10:00,74.7,73.2,29.59,South,180,0.0,0.7,94,0.00,,,0.00,fowsr,2013-06-14 09:10:00,
2013-06-14 05:15:00,74.7,73.2,29.59,East,90,0.0,1.6,94,0.00,,,0.00,fowsr,2013-06-14 09:15:00,
2013-06-14 05:20:00,74.7,73.2,29.59,SE,135,0.7,3.1,94,0.00,,,0.00,fowsr,2013-06-14 09:20:00,
2013-06-14 05:25:00,74.7,73.4,29.58,SE,135,0.7,1.6,95,0.00,,,0.00,fowsr,2013-06-14 09:25:00,
2013-06-14 05:30:00,74.7,73.4,29.58,East,90,0.0,0.7,95,0.00,,,0.00,fowsr,2013-06-14 09:30:00,
2013-06-14 05:35:00,74.7,73.4,29.58,North,0,0.7,1.6,95,0.00,,,0.00,fowsr,2013-06-14 09:35:00,
2013-06-14 05:40:00,74.7,73.4,29.58,NE,45,1.6,3.1,95,0.00,,,0.00,fowsr,2013-06-14 09:40:00,
2013-06-14 05:45:00,74.7,73.4,29.58,East,90,0.0,0.7,95,0.00,,,0.00,fowsr,2013-06-14 09:45:00,
2013-06-14 05:50:00,74.7,73.4,29.59,NE,45,0.0,0.7,95,0.00,,,0.00,fowsr,2013-06-14 09:50:00,
2013-06-14 05:55:00,74.5,73.3,29.59,SE,135,0.0,0.0,95,0.00,,,0.00,fowsr,2013-06-14 09:55:00,
2013-06-14 06:00:00,74.5,73.3,29.59,SW,225,0.0,0.0,95,0.00,,,0.00,fowsr,2013-06-14 10:00:00,
2013-06-14 06:05:00,74.5,73.3,29.59,SW,225,0.0,0.0,95,0.00,,,0.00,fowsr,2013-06-14 10:05:00,
2013-06-14 06:10:00,74.7,73.4,29.59,NE,45,0.7,1.6,95,0.00,,,0.00,fowsr,2013-06-14 10:10:00,
2013-06-14 06:15:00,74.7,73.4,29.59,NE,45,0.7,1.6,95,0.00,,,0.00,fowsr,2013-06-14 10:15:00,
2013-06-14 06:20:00,74.7,73.4,29.59,NW,315,0.0,1.6,95,0.00,,,0.00,fowsr,2013-06-14 10:20:00,
2013-06-14 06:25:00,74.7,73.4,29.59,SE,135,0.0,0.7,95,0.00,,,0.00,fowsr,2013-06-14 10:25:00,
2013-06-14 06:30:00,74.7,73.2,29.59,NE,45,0.0,1.6,94,0.00,,,0.00,fowsr,2013-06-14 10:30:00,
2013-06-14 06:35:00,74.8,73.4,29.58,NE,45,0.0,1.6,94,0.00,,,0.00,fowsr,2013-06-14 10:35:00,
2013-06-14 06:40:00,74.8,73.4,29.59,SE,135,0.7,2.2,94,0.00,,,0.00,fowsr,2013-06-14 10:40:00,
2013-06-14 06:45:00,75.0,73.6,29.59,East,90,0.7,1.6,94,0.00,,,0.00,fowsr,2013-06-14 10:45:00,
2013-06-14 06:50:00,75.0,73.6,29.59,NE,45,0.0,2.2,94,0.00,,,0.00,fowsr,2013-06-14 10:50:00,
2013-06-14 06:55:00,75.2,73.2,29.58,South,180,0.7,2.2,92,0.00,,,0.00,fowsr,2013-06-14 10:55:00,
2013-06-14 07:00:00,75.6,73.6,29.58,North,0,1.6,2.2,92,0.00,,,0.00,fowsr,2013-06-14 11:00:00,
2013-06-14 07:05:00,75.7,73.8,29.59,NE,45,1.6,3.8,92,0.00,,,0.00,fowsr,2013-06-14 11:05:00,
2013-06-14 07:10:00,76.1,73.9,29.59,NE,45,0.7,2.2,91,0.00,,,0.00,fowsr,2013-06-14 11:10:00,
2013-06-14 07:15:00,76.3,74.0,29.59,NW,315,0.7,2.2,91,0.00,,,0.00,fowsr,2013-06-14 11:15:00,
2013-06-14 07:20:00,76.6,74.1,29.59,NNE,22,0.0,1.6,90,0.00,,,0.00,fowsr,2013-06-14 11:20:00,
2013-06-14 07:25:00,77.0,74.2,29.59,NNW,337,0.7,3.1,89,0.00,,,0.00,fowsr,2013-06-14 11:25:00,
2013-06-14 07:30:00,77.4,74.6,29.59,NE,45,0.7,1.6,89,0.00,,,0.00,fowsr,2013-06-14 11:30:00,
2013-06-14 07:35:00,77.9,74.8,29.59,North,0,0.7,2.2,88,0.00,,,0.00,fowsr,2013-06-14 11:35:00,
2013-06-14 07:40:00,79.0,75.3,29.59,North,0,1.6,2.2,86,0.00,,,0.00,fowsr,2013-06-14 11:40:00,
2013-06-14 07:45:00,79.7,75.5,29.59,SE,135,1.6,3.1,84,0.00,,,0.00,fowsr,2013-06-14 11:45:00,
2013-06-14 07:50:00,80.4,75.9,29.59,NW,315,0.7,2.2,83,0.00,,,0.00,fowsr,2013-06-14 11:50:00,
2013-06-14 07:55:00,81.0,75.8,29.60,East,90,0.7,2.2,81,0.00,,,0.00,fowsr,2013-06-14 11:55:00,
2013-06-14 08:00:00,81.1,75.7,29.59,NE,45,1.6,3.1,80,0.00,,,0.00,fowsr,2013-06-14 12:00:00,
2013-06-14 08:05:00,80.6,75.2,29.59,NE,45,0.7,2.2,80,0.00,,,0.00,fowsr,2013-06-14 12:05:00,
2013-06-14 08:10:00,81.0,75.8,29.59,East,90,0.0,0.7,81,0.00,,,0.00,fowsr,2013-06-14 12:10:00,
2013-06-14 08:15:00,82.4,76.3,29.59,SE,135,1.6,2.2,78,0.00,,,0.00,fowsr,2013-06-14 12:15:00,
2013-06-14 08:20:00,83.1,76.7,29.59,NW,315,0.7,2.2,77,0.00,,,0.00,fowsr,2013-06-14 12:20:00,
2013-06-14 08:25:00,83.5,76.4,29.59,West,270,0.7,1.6,75,0.00,,,0.00,fowsr,2013-06-14 12:25:00,
2013-06-14 08:30:00,82.9,76.2,29.60,NW,315,0.0,2.2,76,0.00,,,0.00,fowsr,2013-06-14 12:30:00,
2013-06-14 08:35:00,82.9,76.2,29.60,NE,45,0.0,0.7,76,0.00,,,0.00,fowsr,2013-06-14 12:35:00,
2013-06-14 08:40:00,83.7,76.9,29.60,East,90,2.2,3.1,76,0.00,,,0.00,fowsr,2013-06-14 12:40:00,
2013-06-14 08:45:00,86.2,78.3,29.60,South,180,2.2,4.5,73,0.00,,,0.00,fowsr,2013-06-14 12:45:00,
2013-06-14 08:50:00,88.9,78.4,29.61,South,180,3.8,6.9,66,0.00,,,0.00,fowsr,2013-06-14 12:50:00,
2013-06-14 08:55:00,88.7,77.9,29.61,NW,315,1.6,3.8,65,0.00,,,0.00,fowsr,2013-06-14 12:55:00,
2013-06-14 09:00:00,89.6,78.4,29.61,NW,315,0.7,1.6,64,0.00,,,0.00,fowsr,2013-06-14 13:00:00,
2013-06-14 09:05:00,91.2,79.1,29.61,NE,45,0.7,1.6,62,0.00,,,0.00,fowsr,2013-06-14 13:05:00,
2013-06-14 09:10:00,91.8,78.0,29.61,ESE,112,0.7,1.6,58,0.00,,,0.00,fowsr,2013-06-14 13:10:00,
2013-06-14 09:15:00,91.0,78.5,29.61,South,180,0.0,1.6,61,0.00,,,0.00,fowsr,2013-06-14 13:15:00,
2013-06-14 09:20:00,90.9,77.5,29.61,East,90,2.2,3.8,59,0.00,,,0.00,fowsr,2013-06-14 13:20:00,
2013-06-14 09:25:00,90.3,77.9,29.61,North,0,1.6,3.1,61,0.00,,,0.00,fowsr,2013-06-14 13:25:00,
2013-06-14 09:30:00,91.6,78.6,29.60,SW,225,1.6,3.8,60,0.00,,,0.00,fowsr,2013-06-14 13:30:00,
2013-06-14 09:35:00,91.4,77.2,29.60,East,90,1.6,2.2,57,0.00,,,0.00,fowsr,2013-06-14 13:35:00,
2013-06-14 09:40:00,92.3,78.0,29.60,ENE,67,1.6,4.5,57,0.00,,,0.00,fowsr,2013-06-14 13:40:00,
2013-06-14 09:45:00,92.3,77.6,29.60,North,0,2.2,3.8,56,0.00,,,0.00,fowsr,2013-06-14 13:45:00,
2013-06-14 09:50:00,91.9,77.3,29.61,NE,45,1.6,2.2,56,0.00,,,0.00,fowsr,2013-06-14 13:50:00,
2013-06-14 09:55:00,91.0,76.0,29.61,NNW,337,3.1,4.5,55,0.00,,,0.00,fowsr,2013-06-14 13:55:00,
2013-06-14 10:00:00,89.2,76.1,29.61,SE,135,3.1,6.9,59,0.00,,,0.00,fowsr,2013-06-14 14:00:00,
2013-06-14 10:05:00,90.1,76.1,29.61,West,270,3.8,7.6,57,0.00,,,0.00,fowsr,2013-06-14 14:05:00,
2013-06-14 10:10:00,90.7,76.1,29.61,South,180,5.4,8.3,56,0.00,,,0.00,fowsr,2013-06-14 14:10:00,
2013-06-14 10:15:00,91.4,76.3,29.61,SW,225,0.7,2.2,55,0.00,,,0.00,fowsr,2013-06-14 14:15:00,
2013-06-14 10:20:00,93.4,76.8,29.61,South,180,2.2,3.8,52,0.00,,,0.00,fowsr,2013-06-14 14:20:00,
2013-06-14 10:25:00,93.9,76.8,29.60,South,180,3.1,6.0,51,0.00,,,0.00,fowsr,2013-06-14 14:25:00,
2013-06-14 10:30:00,93.6,76.5,29.60,SE,135,3.8,5.4,51,0.00,,,0.00,fowsr,2013-06-14 14:30:00,
2013-06-14 10:35:00,91.2,75.7,29.60,South,180,3.1,6.9,54,0.00,,,0.00,fowsr,2013-06-14 14:35:00,
2013-06-14 10:40:00,91.6,76.9,29.60,SW,225,1.6,3.8,56,0.00,,,0.00,fowsr,2013-06-14 14:40:00,
2013-06-14 10:45:00,92.8,77.7,29.60,SW,225,1.6,3.8,55,0.00,,,0.00,fowsr,2013-06-14 14:45:00,
2013-06-14 10:50:00,92.7,77.5,29.60,South,180,3.1,3.8,55,0.00,,,0.00,fowsr,2013-06-14 14:50:00,
2013-06-14 10:55:00,92.7,77.1,29.60,South,180,3.1,5.4,54,0.00,,,0.00,fowsr,2013-06-14 14:55:00,
2013-06-14 11:00:00,93.2,76.6,29.60,SW,225,1.6,3.1,52,0.00,,,0.00,fowsr,2013-06-14 15:00:00,
2013-06-14 11:05:00,93.7,76.7,29.61,South,180,3.8,6.0,51,0.00,,,0.00,fowsr,2013-06-14 15:05:00,
2013-06-14 11:10:00,92.1,76.6,29.61,East,90,2.2,3.8,54,0.00,,,0.00,fowsr,2013-06-14 15:10:00,
2013-06-14 11:15:00,93.6,77.4,29.61,SW,225,2.2,4.5,53,0.00,,,0.00,fowsr,2013-06-14 15:15:00,
2013-06-14 11:20:00,92.7,76.1,29.61,SW,225,2.2,4.5,52,0.00,,,0.00,fowsr,2013-06-14 15:20:00,
2013-06-14 11:25:00,91.0,76.0,29.62,SW,225,2.2,5.4,55,0.00,,,0.00,fowsr,2013-06-14 15:25:00,
2013-06-14 11:30:00,92.1,76.6,29.62,NE,45,3.1,4.5,54,0.00,,,0.00,fowsr,2013-06-14 15:30:00,
2013-06-14 11:35:00,91.8,76.7,29.62,ENE,67,1.6,3.1,55,0.00,,,0.00,fowsr,2013-06-14 15:35:00,
2013-06-14 11:40:00,93.2,76.2,29.62,SW,225,6.9,10.7,51,0.00,,,0.00,fowsr,2013-06-14 15:40:00,
2013-06-14 11:45:00,93.0,76.9,29.62,NW,315,5.4,8.3,53,0.00,,,0.00,fowsr,2013-06-14 15:45:00,
2013-06-14 11:50:00,94.5,77.3,29.62,South,180,4.5,6.9,51,0.00,,,0.00,fowsr,2013-06-14 15:50:00,
2013-06-14 11:55:00,94.6,76.5,29.62,South,180,2.2,6.9,49,0.00,,,0.00,fowsr,2013-06-14 15:55:00,
2013-06-14 12:00:00,94.6,76.5,29.61,South,180,3.1,6.0,49,0.00,,,0.00,fowsr,2013-06-14 16:00:00,
2013-06-14 12:05:00,94.1,76.0,29.61,SE,135,3.1,4.5,49,0.00,,,0.00,fowsr,2013-06-14 16:05:00,
2013-06-14 12:10:00,93.0,76.0,29.61,South,180,2.2,4.5,51,0.00,,,0.00,fowsr,2013-06-14 16:10:00,
2013-06-14 12:15:00,95.0,76.3,29.60,SE,135,3.8,6.0,48,0.00,,,0.00,fowsr,2013-06-14 16:15:00,
2013-06-14 12:20:00,95.5,75.8,29.60,South,180,2.2,5.4,46,0.00,,,0.00,fowsr,2013-06-14 16:20:00,
2013-06-14 12:25:00,96.3,76.4,29.60,East,90,4.5,6.9,46,0.00,,,0.00,fowsr,2013-06-14 16:25:00,
2013-06-14 12:30:00,95.9,76.1,29.60,West,270,1.6,3.1,46,0.00,,,0.00,fowsr,2013-06-14 16:30:00,
2013-06-14 12:35:00,95.9,76.1,29.59,West,270,1.6,3.1,46,0.00,,,0.00,fowsr,2013-06-14 16:35:00,
2013-06-14 12:40:00,95.9,76.1,29.60,NW,315,1.6,2.2,46,0.00,,,0.00,fowsr,2013-06-14 16:40:00,
2013-06-14 12:45:00,95.5,76.3,29.60,SW,225,1.6,3.8,47,0.00,,,0.00,fowsr,2013-06-14 16:45:00,
2013-06-14 12:50:00,95.5,76.8,29.60,West,270,4.5,5.4,48,0.00,,,0.00,fowsr,2013-06-14 16:50:00,
2013-06-14 12:55:00,94.3,76.7,29.60,SE,135,3.1,6.9,50,0.00,,,0.00,fowsr,2013-06-14 16:55:00,
2013-06-14 13:00:00,94.5,75.8,29.60,South,180,2.2,6.0,48,0.00,,,0.00,fowsr,2013-06-14 17:00:00,
2013-06-14 13:05:00,95.2,76.0,29.59,South,180,3.1,4.5,47,0.00,,,0.00,fowsr,2013-06-14 17:05:00,
2013-06-14 13:10:00,95.9,76.6,29.59,South,180,2.2,5.4,47,0.00,,,0.00,fowsr,2013-06-14 17:10:00,
2013-06-14 13:15:00,95.9,76.1,29.59,SW,225,1.6,3.1,46,0.00,,,0.00,fowsr,2013-06-14 17:15:00,
2013-06-14 13:20:00,95.2,76.5,29.59,NNW,337,3.8,6.0,48,0.00,,,0.00,fowsr,2013-06-14 17:20:00,
2013-06-14 13:25:00,94.6,77.5,29.59,NE,45,0.7,1.6,51,0.00,,,0.00,fowsr,2013-06-14 17:25:00,
2013-06-14 13:30:00,96.4,77.6,29.59,South,180,0.7,2.2,48,0.00,,,0.00,fowsr,2013-06-14 17:30:00,
2013-06-14 13:35:00,95.4,76.1,29.59,SW,225,3.1,5.4,47,0.00,,,0.00,fowsr,2013-06-14 17:35:00,
2013-06-14 13:40:00,93.6,75.5,29.59,South,180,3.1,6.9,49,0.00,,,0.00,fowsr,2013-06-14 17:40:00,
2013-06-14 13:45:00,92.7,76.1,29.59,South,180,5.4,7.6,52,0.00,,,0.00,fowsr,2013-06-14 17:45:00,
2013-06-14 13:50:00,94.5,76.8,29.58,SW,225,3.1,6.9,50,0.00,,,0.00,fowsr,2013-06-14 17:50:00,
2013-06-14 13:55:00,96.6,77.8,29.59,NE,45,1.6,2.2,48,0.00,,,0.00,fowsr,2013-06-14 17:55:00,
2013-06-14 14:00:00,97.3,77.4,29.59,SW,225,2.2,3.8,46,0.00,,,0.00,fowsr,2013-06-14 18:00:00,
2013-06-14 14:05:00,97.3,77.4,29.58,SW,225,2.2,3.8,46,0.00,,,0.00,fowsr,2013-06-14 18:05:00,
2013-06-14 14:10:00,98.6,77.4,29.57,NW,315,0.7,1.6,44,0.00,,,0.00,fowsr,2013-06-14 18:10:00,
2013-06-14 14:15:00,98.8,77.0,29.57,SW,225,3.1,6.9,43,0.00,,,0.00,fowsr,2013-06-14 18:15:00,
2013-06-14 14:20:00,97.5,76.5,29.57,South,180,5.4,6.0,44,0.00,,,0.00,fowsr,2013-06-14 18:20:00,
2013-06-14 14:25:00,96.1,75.7,29.57,South,180,4.5,5.4,45,0.00,,,0.00,fowsr,2013-06-14 18:25:00,
2013-06-14 14:30:00,95.0,75.3,29.58,NNW,337,3.1,5.4,46,0.00,,,0.00,fowsr,2013-06-14 18:30:00,
2013-06-14 14:35:00,95.4,76.1,29.57,SE,135,3.8,6.0,47,0.00,,,0.00,fowsr,2013-06-14 18:35:00,
2013-06-14 14:40:00,96.1,76.3,29.57,NE,45,2.2,3.1,46,0.00,,,0.00,fowsr,2013-06-14 18:40:00,
2013-06-14 14:45:00,96.1,76.3,29.57,South,180,2.2,3.8,46,0.00,,,0.00,fowsr,2013-06-14 18:45:00,
2013-06-14 14:50:00,96.8,76.4,29.56,SW,225,3.1,5.4,45,0.00,,,0.00,fowsr,2013-06-14 18:50:00,
2013-06-14 15:00:00,95.4,75.6,29.57,South,180,4.5,9.2,46,0.00,,,0.00,fowsr,2013-06-14 19:00:00,
2013-06-14 15:05:00,94.6,76.0,29.56,South,180,3.1,4.5,48,0.00,,,0.00,fowsr,2013-06-14 19:05:00,
2013-06-14 15:10:00,94.8,76.7,29.57,SE,135,1.6,4.5,49,0.00,,,0.00,fowsr,2013-06-14 19:10:00,
2013-06-14 15:15:00,95.5,75.8,29.56,South,180,5.4,10.7,46,0.00,,,0.00,fowsr,2013-06-14 19:15:00,
2013-06-14 15:20:00,94.6,75.0,29.56,SE,135,0.7,2.2,46,0.00,,,0.00,fowsr,2013-06-14 19:20:00,
2013-06-14 15:25:00,95.2,74.9,29.55,East,90,2.2,3.8,45,0.00,,,0.00,fowsr,2013-06-14 19:25:00,
2013-06-14 15:30:00,95.5,75.3,29.56,SW,225,0.0,0.7,45,0.00,,,0.00,fowsr,2013-06-14 19:30:00,
2013-06-14 15:35:00,96.3,75.9,29.56,East,90,0.7,1.6,45,0.00,,,0.00,fowsr,2013-06-14 19:35:00,
2013-06-14 15:40:00,95.2,74.9,29.57,North,0,3.1,6.9,45,0.00,,,0.00,fowsr,2013-06-14 19:40:00,
2013-06-14 15:45:00,95.2,74.9,29.56,South,180,2.2,3.8,45,0.00,,,0.00,fowsr,2013-06-14 19:45:00,
2013-06-14 15:50:00,96.8,75.8,29.57,South,180,2.2,3.8,44,0.00,,,0.00,fowsr,2013-06-14 19:50:00,
2013-06-14 15:55:00,96.6,75.7,29.57,SSE,157,4.5,7.6,44,0.00,,,0.00,fowsr,2013-06-14 19:55:00,
2013-06-14 16:00:00,96.1,75.7,29.57,North,0,3.8,6.0,45,0.00,,,0.00,fowsr,2013-06-14 20:00:00,
2013-06-14 16:05:00,96.1,75.7,29.56,North,0,3.8,6.0,45,0.00,,,0.00,fowsr,2013-06-14 20:05:00,
2013-06-14 16:10:00,96.3,75.9,29.56,NW,315,3.1,5.4,45,0.00,,,0.00,fowsr,2013-06-14 20:10:00,
2013-06-14 16:15:00,96.8,75.3,29.56,North,0,2.2,7.6,43,0.00,,,0.00,fowsr,2013-06-14 20:15:00,
2013-06-14 16:20:00,96.6,76.2,29.56,South,180,0.7,1.6,45,0.00,,,0.00,fowsr,2013-06-14 20:20:00,
2013-06-14 16:25:00,96.8,74.7,29.56,NE,45,1.6,3.1,42,0.00,,,0.00,fowsr,2013-06-14 20:25:00,
2013-06-14 16:30:00,96.1,74.6,29.55,SW,225,1.6,3.1,43,0.00,,,0.00,fowsr,2013-06-14 20:30:00,
2013-06-14 16:35:00,96.8,75.3,29.56,SE,135,1.6,3.1,43,0.00,,,0.00,fowsr,2013-06-14 20:35:00,
2013-06-14 16:40:00,96.4,75.0,29.56,South,180,4.5,8.3,43,0.00,,,0.00,fowsr,2013-06-14 20:40:00,
2013-06-14 16:45:00,96.1,75.2,29.56,East,90,3.8,6.0,44,0.00,,,0.00,fowsr,2013-06-14 20:45:00,
2013-06-14 16:50:00,95.5,74.7,29.55,NE,45,0.7,1.6,44,0.00,,,0.00,fowsr,2013-06-14 20:50:00,
2013-06-14 16:55:00,96.1,75.2,29.54,NE,45,2.2,3.8,44,0.00,,,0.00,fowsr,2013-06-14 20:55:00,
2013-06-14 17:00:00,95.5,74.2,29.54,South,180,3.8,5.4,43,0.00,,,0.00,fowsr,2013-06-14 21:00:00,
2013-06-14 17:05:00,95.5,74.2,29.54,SW,225,1.6,3.1,43,0.00,,,0.00,fowsr,2013-06-14 21:05:00,
2013-06-14 17:10:00,95.4,74.6,29.53,SW,225,3.8,7.6,44,0.00,,,0.00,fowsr,2013-06-14 21:10:00,
2013-06-14 17:15:00,95.4,74.0,29.54,SE,135,1.6,3.8,43,0.00,,,0.00,fowsr,2013-06-14 21:15:00,
2013-06-14 17:20:00,95.4,74.0,29.53,East,90,2.2,4.5,43,0.00,,,0.00,fowsr,2013-06-14 21:20:00,
2013-06-14 17:25:00,95.5,74.7,29.53,East,90,0.7,2.2,44,0.00,,,0.00,fowsr,2013-06-14 21:25:00,
2013-06-14 17:30:00,95.2,74.4,29.53,ENE,67,3.1,3.8,44,0.00,,,0.00,fowsr,2013-06-14 21:30:00,
2013-06-14 17:35:00,95.4,74.6,29.53,North,0,2.2,3.8,44,0.00,,,0.00,fowsr,2013-06-14 21:35:00,
2013-06-14 17:40:00,95.5,74.7,29.54,SSW,202,2.2,4.5,44,0.00,,,0.00,fowsr,2013-06-14 21:40:00,
2013-06-14 17:45:00,95.2,74.9,29.55,SE,135,0.0,1.6,45,0.00,,,0.00,fowsr,2013-06-14 21:45:00,
2013-06-14 17:50:00,95.5,75.3,29.55,SW,225,1.6,3.1,45,0.00,,,0.00,fowsr,2013-06-14 21:50:00,
2013-06-14 17:55:00,96.1,75.2,29.55,South,180,3.8,6.9,44,0.00,,,0.00,fowsr,2013-06-14 21:55:00,
2013-06-14 18:00:00,96.1,75.2,29.56,SE,135,2.2,3.8,44,0.00,,,0.00,fowsr,2013-06-14 22:00:00,
2013-06-14 18:05:00,96.1,75.2,29.56,SE,135,2.2,3.8,44,0.00,,,0.00,fowsr,2013-06-14 22:05:00,
2013-06-14 18:10:00,95.5,74.2,29.56,North,0,1.6,3.1,43,0.00,,,0.00,fowsr,2013-06-14 22:10:00,
2013-06-14 18:15:00,95.5,74.2,29.57,South,180,1.6,3.1,43,0.00,,,0.00,fowsr,2013-06-14 22:15:00,
2013-06-14 18:20:00,95.7,74.3,29.56,SE,135,2.2,4.5,43,0.00,,,0.00,fowsr,2013-06-14 22:20:00,
2013-06-14 18:25:00,95.0,73.1,29.57,SE,135,4.5,6.9,42,0.00,,,0.00,fowsr,2013-06-14 22:25:00,
2013-06-14 18:30:00,93.9,72.8,29.57,SW,225,2.2,5.4,43,0.00,,,0.00,fowsr,2013-06-14 22:30:00,
2013-06-14 18:35:00,92.3,72.4,29.56,South,180,3.8,4.5,45,0.00,,,0.00,fowsr,2013-06-14 22:35:00,
2013-06-14 18:40:00,91.0,69.7,29.57,West,270,2.2,3.1,42,0.00,,,0.00,fowsr,2013-06-14 22:40:00,
2013-06-14 18:45:00,90.5,69.8,29.56,SE,135,1.6,3.1,43,0.00,,,0.00,fowsr,2013-06-14 22:45:00,
2013-06-14 18:50:00,90.0,69.8,29.57,South,180,1.6,3.1,44,0.00,,,0.00,fowsr,2013-06-14 22:50:00,
2013-06-14 18:55:00,89.6,69.5,29.57,South,180,0.7,2.2,44,0.00,,,0.00,fowsr,2013-06-14 22:55:00,
2013-06-14 19:00:00,89.2,70.2,29.56,South,180,0.0,0.7,46,0.00,,,0.00,fowsr,2013-06-14 23:00:00,
2013-06-14 19:05:00,88.9,69.9,29.56,NE,45,0.7,1.6,46,0.00,,,0.00,fowsr,2013-06-14 23:05:00,
2013-06-14 19:10:00,88.5,69.6,29.56,NW,315,0.7,3.1,46,0.00,,,0.00,fowsr,2013-06-14 23:10:00,
2013-06-14 19:15:00,88.2,69.7,29.56,West,270,0.7,2.2,47,0.00,,,0.00,fowsr,2013-06-14 23:15:00,
2013-06-14 19:20:00,88.0,70.1,29.56,SE,135,0.0,0.7,48,0.00,,,0.00,fowsr,2013-06-14 23:20:00,
2013-06-14 19:25:00,87.4,70.5,29.56,North,0,0.7,3.1,50,0.00,,,0.00,fowsr,2013-06-14 23:25:00,
2013-06-14 19:30:00,87.1,70.2,29.56,NE,45,2.2,3.8,50,0.00,,,0.00,fowsr,2013-06-14 23:30:00,
2013-06-14 19:35:00,86.7,69.9,29.55,ENE,67,1.6,3.1,50,0.00,,,0.00,fowsr,2013-06-14 23:35:00,
2013-06-14 19:40:00,86.4,70.0,29.55,SE,135,0.7,3.1,51,0.00,,,0.00,fowsr,2013-06-14 23:40:00,
2013-06-14 19:45:00,86.2,69.8,29.56,South,180,0.7,1.6,51,0.00,,,0.00,fowsr,2013-06-14 23:45:00,
2013-06-14 19:50:00,86.2,70.3,29.56,East,90,0.7,2.2,52,0.00,,,0.00,fowsr,2013-06-14 23:50:00,
2013-06-14 19:55:00,86.0,70.6,29.56,NE,45,1.6,2.2,53,0.00,,,0.00,fowsr,2013-06-14 23:55:00,
2013-06-14 20:00:00,85.8,70.8,29.56,NW,315,1.6,2.2,54,0.00,,,0.00,fowsr,2013-06-15 00:00:00,
2013-06-14 20:05:00,85.6,70.7,29.57,SW,225,0.0,0.7,54,0.00,,,0.00,fowsr,2013-06-15 00:05:00,
2013-06-14 20:10:00,85.6,71.1,29.59,WNW,292,0.7,1.6,55,0.00,,,0.00,fowsr,2013-06-15 00:10:00,
2013-06-14 20:20:00,85.5,71.4,29.59,SW,225,1.6,3.1,56,0.00,,,0.00,fowsr,2013-06-15 00:20:00,
2013-06-14 20:25:00,85.3,71.6,29.59,South,180,0.0,0.7,57,0.00,,,0.00,fowsr,2013-06-15 00:25:00,
2013-06-14 20:30:00,84.9,71.7,29.59,SE,135,0.0,1.6,58,0.00,,,0.00,fowsr,2013-06-15 00:30:00,
2013-06-14 20:35:00,84.9,71.7,29.59,North,0,0.0,0.7,58,0.00,,,0.00,fowsr,2013-06-15 00:35:00,
2013-06-14 20:40:00,84.6,72.1,29.59,South,180,1.6,2.2,60,0.00,,,0.00,fowsr,2013-06-15 00:40:00,
2013-06-14 20:45:00,84.4,72.0,29.59,NE,45,0.7,1.6,60,0.00,,,0.00,fowsr,2013-06-15 00:45:00,
2013-06-14 20:50:00,84.2,72.6,29.59,SE,135,0.0,0.7,62,0.00,,,0.00,fowsr,2013-06-15 00:50:00,
2013-06-14 20:55:00,84.0,73.1,29.59,NE,45,0.7,1.6,64,0.00,,,0.00,fowsr,2013-06-15 00:55:00,
2013-06-14 21:00:00,83.7,73.2,29.59,NE,45,0.0,1.6,65,0.00,,,0.00,fowsr,2013-06-15 01:00:00,
2013-06-14 21:05:00,83.7,73.2,29.59,NW,315,0.0,0.7,65,0.00,,,0.00,fowsr,2013-06-15 01:05:00,
2013-06-14 21:10:00,83.5,73.4,29.60,East,90,0.7,1.6,66,0.00,,,0.00,fowsr,2013-06-15 01:10:00,
2013-06-14 21:15:00,83.5,73.4,29.61,South,180,0.0,2.2,66,0.00,,,0.00,fowsr,2013-06-15 01:15:00,
2013-06-14 21:20:00,83.5,73.7,29.61,SSW,202,1.6,3.1,67,0.00,,,0.00,fowsr,2013-06-15 01:20:00,
2013-06-14 21:25:00,83.3,73.6,29.61,SE,135,0.7,1.6,67,0.00,,,0.00,fowsr,2013-06-15 01:25:00,
2013-06-14 21:30:00,83.3,73.9,29.60,NE,45,0.7,1.6,68,0.00,,,0.00,fowsr,2013-06-15 01:30:00,
2013-06-14 21:35:00,83.1,73.7,29.59,East,90,1.6,2.2,68,0.00,,,0.00,fowsr,2013-06-15 01:35:00,
2013-06-14 21:40:00,82.9,73.9,29.59,NE,45,0.0,0.7,69,0.00,,,0.00,fowsr,2013-06-15 01:40:00,
2013-06-14 21:45:00,82.8,73.7,29.60,East,90,0.0,0.7,69,0.00,,,0.00,fowsr,2013-06-15 01:45:00,
2013-06-14 21:50:00,82.6,73.6,29.60,East,90,0.0,0.7,69,0.00,,,0.00,fowsr,2013-06-15 01:50:00,
2013-06-14 21:55:00,82.6,74.2,29.61,SE,135,1.6,2.2,71,0.00,,,0.00,fowsr,2013-06-15 01:55:00,
2013-06-14 22:00:00,82.6,74.2,29.61,South,180,1.6,3.1,71,0.00,,,0.00,fowsr,2013-06-15 02:00:00,
2013-06-14 22:05:00,82.4,74.1,29.60,SE,135,0.7,1.6,71,0.00,,,0.00,fowsr,2013-06-15 02:05:00,
2013-06-14 22:10:00,82.2,74.6,29.60,North,0,0.0,1.6,73,0.00,,,0.00,fowsr,2013-06-15 02:10:00,
2013-06-14 22:15:00,82.2,74.6,29.60,SE,135,0.7,2.2,73,0.00,,,0.00,fowsr,2013-06-15 02:15:00,
2013-06-14 22:20:00,82.0,74.4,29.60,South,180,0.7,1.6,73,0.00,,,0.00,fowsr,2013-06-15 02:20:00,
2013-06-14 22:25:00,81.9,74.2,29.61,East,90,0.0,1.6,73,0.00,,,0.00,fowsr,2013-06-15 02:25:00,
2013-06-14 22:30:00,81.7,74.0,29.61,SE,135,0.0,0.7,73,0.00,,,0.00,fowsr,2013-06-15 02:30:00,
2013-06-14 22:35:00,81.3,73.7,29.61,SE,135,0.0,1.6,73,0.00,,,0.00,fowsr,2013-06-15 02:35:00,
2013-06-14 22:40:00,81.3,74.0,29.61,South,180,0.0,0.7,74,0.00,,,0.00,fowsr,2013-06-15 02:40:00,
2013-06-14 22:45:00,81.1,73.9,29.62,North,0,0.7,2.2,74,0.00,,,0.00,fowsr,2013-06-15 02:45:00,
2013-06-14 22:50:00,81.0,73.7,29.62,East,90,0.0,0.7,74,0.00,,,0.00,fowsr,2013-06-15 02:50:00,
2013-06-14 22:55:00,81.0,73.7,29.62,North,0,0.0,1.6,74,0.00,,,0.00,fowsr,2013-06-15 02:55:00,
2013-06-14 23:00:00,80.8,73.5,29.62,West,270,0.0,0.7,74,0.00,,,0.00,fowsr,2013-06-15 03:00:00,
2013-06-14 23:05:00,80.8,73.5,29.62,NE,45,0.0,0.0,74,0.00,,,0.00,fowsr,2013-06-15 03:05:00,
2013-06-14 23:10:00,80.6,73.7,29.62,NE,45,0.7,2.2,75,0.00,,,0.00,fowsr,2013-06-15 03:10:00,
2013-06-14 23:15:00,80.6,73.7,29.62,NE,45,0.0,1.6,75,0.00,,,0.00,fowsr,2013-06-15 03:15:00,
2013-06-14 23:20:00,80.4,73.8,29.62,South,180,0.7,3.1,76,0.00,,,0.00,fowsr,2013-06-15 03:20:00,
2013-06-14 23:25:00,80.2,73.9,29.62,East,90,0.0,0.0,77,0.00,,,0.00,fowsr,2013-06-15 03:25:00,
2013-06-14 23:30:00,80.1,74.1,29.63,SE,135,0.0,0.7,78,0.00,,,0.00,fowsr,2013-06-15 03:30:00,
2013-06-14 23:35:00,80.1,74.1,29.63,East,90,1.6,2.2,78,0.00,,,0.00,fowsr,2013-06-15 03:35:00,
2013-06-14 23:40:00,80.1,74.1,29.64,East,90,0.0,0.0,78,0.00,,,0.00,fowsr,2013-06-15 03:40:00,
2013-06-14 23:45:00,80.1,74.1,29.63,SE,135,0.0,0.7,78,0.00,,,0.00,fowsr,2013-06-15 03:45:00,
2013-06-14 23:50:00,79.7,74.0,29.63,South,180,0.0,0.0,79,0.00,,,0.00,fowsr,2013-06-15 03:50:00,
2013-06-14 23:55:00,79.7,74.0,29.64,SE,135,0.0,2.2,79,0.00,,,0.00,fowsr,2013-06-15 03:55:00,